GW1370 Weather Reports


time (UTC)temp
C
wind
direction
speed
KPH
gust
KPH
rain 1hr
cm
rain 24hr
cm
rain mn
cm
humidity
%
barometer
mb
20260506044546 7 310 8.0 14.5 0.00 0.00 0.00 83 1011.2
20260506043049 7 338 4.8 12.9 0.00 0.00 0.00 83 1011.1
20260506041556 7 350 3.2 12.9 0.00 0.00 0.00 82 1011.0
20260506040050 7 296 3.2 14.5 0.00 0.00 0.00 82 1011.2
20260506034550 8 328 3.2 16.1 0.00 0.00 0.00 81 1011.4
20260506033048 8 320 8.0 16.1 0.00 0.00 0.00 81 1011.2
20260506031554 8 342 3.2 12.9 0.00 0.00 0.00 83 1011.3
20260506030041 8 339 4.8 11.3 0.00 0.00 0.00 83 1011.5
20260506024550 8 345 3.2 8.0 0.00 0.00 0.00 84 1011.5
20260506023100 8 329 0.0 9.7 0.00 0.00 0.00 83 1011.6
20260506021608 8 3 4.8 12.9 0.00 0.00 0.00 83 1011.6
20260506020052 9 314 1.6 11.3 0.00 0.00 0.00 83 1011.7
20260506014542 9 345 3.2 12.9 0.00 0.00 0.00 83 1011.7
20260506013055 9 335 4.8 12.9 0.00 0.00 0.00 83 1011.7
20260506011604 9 352 6.4 12.9 0.00 0.00 0.00 83 1011.8
20260506010043 9 346 3.2 17.7 0.00 0.00 0.00 82 1011.8
20260506004543 9 13 4.8 19.3 0.00 0.00 0.00 82 1011.9
20260506003041 9 4 6.4 19.3 0.00 0.00 0.00 82 1011.9
20260506001553 9 313 3.2 14.5 0.00 0.00 0.00 81 1012.0
20260506000048 10 353 1.6 14.5 0.00 0.00 0.00 80 1012.1
20260505234546 10 356 3.2 19.3 0.00 0.00 0.00 80 1012.0
20260505233044 10 350 4.8 16.1 0.00 0.00 0.00 79 1011.9
20260505231558 10 18 8.0 14.5 0.00 0.00 0.00 78 1011.9
20260505230041 10 359 4.8 20.9 0.00 0.00 0.00 78 1012.1
20260505224545 10 8 8.0 17.7 0.00 0.00 0.00 78 1012.0
20260505223048 10 333 8.0 19.3 0.00 0.00 0.00 78 1012.1
20260505221539 11 13 6.4 11.3 0.00 0.00 0.00 78 1012.0
20260505220045 10 34 6.4 12.9 0.00 0.00 0.00 78 1011.9
20260505214552 11 43 3.2 14.5 0.00 0.00 0.00 78 1011.9
20260505213041 11 21 3.2 11.3 0.00 0.00 0.00 77 1011.9
20260505211549 11 56 8.0 19.3 0.00 0.00 0.00 77 1011.9
20260505210045 11 42 8.0 19.3 0.00 0.00 0.00 77 1011.8
20260505204548 11 33 8.0 14.5 0.00 0.00 0.00 79 1012.0
20260505203104 11 57 8.0 19.3 0.00 0.00 0.00 78 1011.8
20260505201545 11 37 8.0 17.7 0.00 0.00 0.00 78 1011.8
20260505200047 11 50 9.7 20.9 0.00 0.00 0.00 78 1011.6
20260505194555 11 41 8.0 20.9 0.00 0.00 0.00 78 1011.5
20260505193044 11 52 11.3 17.7 0.00 0.00 0.00 78 1011.4
20260505191542 11 68 16.1 22.5 0.00 0.00 0.00 77 1011.3
20260505190040 11 78 16.1 22.5 0.00 0.00 0.00 76 1011.1
20260505184549 11 64 16.1 24.1 0.00 0.00 0.00 72 1011.1
20260505183046 12 56 14.5 25.7 0.00 0.00 0.00 68 1010.9
20260505181550 12 56 14.5 22.5 0.00 0.00 0.00 67 1010.9
20260505180051 12 60 12.9 20.9 0.00 0.00 0.00 65 1010.9
20260505174547 12 26 11.3 20.9 0.00 0.00 0.00 69 1010.9
20260505173055 12 32 12.9 19.3 0.00 0.00 0.00 69 1010.8
20260505171547 12 77 9.7 24.1 0.00 0.00 0.00 69 1011.0
20260505170104 12 68 11.3 14.5 0.00 0.00 0.00 68 1011.0
20260505164547 12 82 14.5 22.5 0.00 0.00 0.00 70 1011.0
20260505163051 12 84 14.5 25.7 0.00 0.00 0.00 67 1011.0
20260505161610 12 70 19.3 24.1 0.00 0.00 0.00 68 1011.0
20260505153056 12 69 14.5 22.5 0.00 0.00 0.00 70 1011.1
20260505151558 12 72 17.7 25.7 0.00 0.00 0.00 69 1011.2
20260505124549 13 46 20.9 30.6 0.00 0.00 0.00 57 1011.5
20260505123044 13 77 19.3 29.0 0.00 0.00 0.00 59 1011.6
20260505121548 13 58 20.9 32.2 0.00 0.00 0.00 56 1011.5
20260505120043 13 85 24.1 30.6 0.00 0.00 0.00 58 1011.6
20260505114548 13 82 22.5 32.2 0.00 0.00 0.00 60 1011.6
20260505113043 13 82 19.3 27.4 0.00 0.00 0.00 62 1011.6
20260505111546 13 59 17.7 30.6 0.00 0.00 0.00 59 1011.7
20260505101553 13 53 6.4 17.7 0.00 0.00 0.00 65 1012.2
20260505100045 12 69 9.7 19.3 0.00 0.00 0.00 69 1012.1
20260505094542 12 14 8.0 16.1 0.00 0.00 0.00 70 1012.3
20260505093047 12 44 8.0 17.7 0.00 0.00 0.00 70 1012.4
20260505091547 12 347 6.4 16.1 0.00 0.00 0.00 71 1012.4
20260505090055 12 43 4.8 14.5 0.00 0.00 0.00 75 1012.4
20260505084550 11 39 4.8 16.1 0.00 0.00 0.00 75 1012.4
20260505083045 11 33 9.7 14.5 0.00 0.00 0.00 75 1012.4
20260505081557 10 29 11.3 20.9 0.00 0.00 0.00 76 1012.5
20260505080046 10 1 11.3 22.5 0.00 0.00 0.00 78 1012.4
20260505074549 10 18 11.3 19.3 0.00 0.00 0.00 79 1012.4
20260505073113 10 34 12.9 20.9 0.00 0.00 0.00 79 1012.3
20260505071542 10 357 6.4 19.3 0.00 0.00 0.00 82 1012.4
20260505070048 10 51 11.3 17.7 0.00 0.00 0.00 82 1012.5
20260505064546 9 360 8.0 16.1 0.00 0.00 0.00 84 1012.6
20260505063048 9 25 3.2 17.7 0.00 0.00 0.00 87 1012.7
20260505061549 8 353 8.0 14.5 0.00 0.00 0.00 87 1012.8
20260505060049 8 12 1.6 14.5 0.00 0.00 0.00 88 1012.8
20260505054547 9 346 1.6 9.7 0.00 0.00 0.00 88 1012.8
20260505053059 9 11 0.0 6.4 0.00 0.00 0.00 89 1012.7
20260505051539 9 353 0.0 0.0 0.00 0.00 0.00 89 1012.7